Weather in Semikino

Russia / Tambov Oblast     53°08′15″N   41°34′06″E
temp.,
°C
wind,
m/s
gust,
m/s
humid.,
%
clouds,
%
prec.,
mm/h
press.,
hPa
HPBL,
m
23 october, sat
sat2300:00+9wsw512670 0.0 1008373
03:00+7sw511755 0.0 1009289
06:00+7sw513720 0.0 1009416
09:00+8sw511655 0.0 1010517
12:00+12wsw713425 0.0 10111445
15:00+12sw7154899 0.0 10101891
18:00+10sw6116079 0.0 1010453
21:00+7w511615 0.1 1012490
24 october, sun
sun2400:00+6w511685 0.0 1013488
03:00+4w511815 0.0 1014429
06:00+3wsw410859 0.0 1014326
09:00+5wsw5116814 0.0 1015463
12:00+7wsw7105999 0.0 10151055
15:00+7w61072100 0.2 10151152
18:00+5wnw51077100 0.1 1016850
21:00+3nw61088100 0.3 1018811
25 october, mon
mon2500:00+2nw6107976 0.1 1019814
03:000nnw7117981 0.1 1022934
06:00−1nnw612775 0.0 1024770
09:000nnw7117618 0.0 1027744
12:00+3nnw685111 0.0 10281075
15:00+4nnw574421 0.0 10281157
18:00+1nw35575 0.0 1030101
21:000w236479 0.0 103053
26 october, tue
tue2600:00−1wsw367135 0.0 1031123
03:00−1sw49735 0.0 1030197
06:00−1sw511733 0.0 1029259
09:00+2wsw5126288 0.0 1029389
12:00+5wsw71048100 0.0 1028600
15:00+7wsw61145100 0.0 1026711
18:00+4sw5125526 0.0 1027338
21:00+3sw5135693 0.0 1026342
27 october, wed
wed2700:00+2sw5136099 0.0 1026320
03:00+2sw5136262 0.0 1025301
06:00+1sw5136287 0.0 1024298
09:00+3sw6145253 0.0 1024404
12:00+7sw71337100 0.0 1022696
15:00+8sw71335100 0.0 1020865
18:00+6sw71435100 0.0 1019629
21:00+6sw61339100 0.0 1018726